GW5621 Weather Reports


time (UTC)temp
C
wind
direction
speed
KPH
gust
KPH
rain 1hr
cm
rain 24hr
cm
rain mn
cm
humidity
%
barometer
mb
20260504081538 4 0 0.0 1.6 0.00 0.00 0.00 73 1013.8
20260504044543 5 0 0.0 1.6 0.00 0.00 0.00 66 1013.7
20260504043039 5 0 0.0 1.6 0.00 0.00 0.00 65 1013.7
20260504041545 6 0 0.0 1.6 0.00 0.00 0.00 64 1013.6
20260504040100 6 0 0.0 0.0 0.00 0.00 0.00 63 1013.4
20260504034546 6 0 0.0 0.0 0.00 0.00 0.00 63 1013.2
20260504033043 6 0 0.0 1.6 0.00 0.00 0.00 61 1013.1
20260504031541 7 0 0.0 1.6 0.00 0.00 0.00 59 1013.2
20260504030038 7 0 0.0 0.0 0.00 0.00 0.00 56 1013.1
20260504024539 8 0 0.0 1.6 0.00 0.00 0.00 53 1013.2
20260504023048 9 0 0.0 4.8 0.00 0.00 0.00 51 1013.1
20260504021540 9 0 0.0 3.2 0.00 0.00 0.00 47 1013.1
20260504020038 10 0 0.0 3.2 0.00 0.00 0.00 46 1013.1
20260504014550 10 326 0.0 6.4 0.00 0.00 0.00 45 1013.0
20260504013046 10 148 0.0 1.6 0.00 0.00 0.00 45 1012.9
20260504011543 11 0 0.0 6.4 0.00 0.00 0.00 43 1012.9
20260504010050 11 295 0.0 4.8 0.00 0.00 0.00 42 1012.7
20260504004552 11 317 1.6 4.8 0.00 0.00 0.00 40 1012.4
20260504003055 12 311 1.6 19.3 0.00 0.00 0.00 38 1012.2
20260504001601 12 281 3.2 12.9 0.00 0.00 0.00 38 1012.0
20260504000047 13 278 3.2 6.4 0.00 0.00 0.00 36 1011.9
20260503234539 13 300 4.8 14.5 0.00 0.00 0.00 35 1011.8
20260503233047 14 279 1.6 9.7 0.00 0.00 0.00 34 1011.5
20260503231548 15 300 8.0 14.5 0.00 0.00 0.00 32 1011.6
20260503230045 15 278 4.8 25.7 0.00 0.00 0.00 32 1011.5
20260503224545 15 288 4.8 12.9 0.00 0.00 0.00 31 1011.4
20260503223039 15 300 4.8 16.1 0.00 0.00 0.00 32 1011.3
20260503221539 14 288 4.8 20.9 0.00 0.00 0.00 33 1011.4
20260503220045 14 335 6.4 17.7 0.00 0.00 0.00 31 1011.3
20260503214541 14 341 9.7 20.9 0.00 0.00 0.00 32 1011.4
20260503213038 14 298 8.0 22.5 0.00 0.00 0.00 31 1011.3
20260503211538 15 310 4.8 33.8 0.00 0.00 0.00 30 1011.3
20260503210037 15 19 8.0 19.3 0.00 0.00 0.00 30 1011.1
20260503204545 15 338 6.4 22.5 0.00 0.00 0.00 31 1011.2
20260503203048 14 259 9.7 29.0 0.00 0.00 0.00 30 1011.3
20260503201546 14 277 6.4 22.5 0.00 0.00 0.00 31 1011.4
20260503200051 14 45 9.7 40.2 0.00 0.00 0.00 31 1011.5
20260503194544 14 267 9.7 17.7 0.00 0.00 0.00 32 1011.6
20260503193047 13 308 14.5 33.8 0.00 0.00 0.00 31 1011.9
20260503191539 13 266 11.3 32.2 0.00 0.00 0.00 33 1012.1
20260503190042 12 293 12.9 33.8 0.00 0.00 0.00 32 1012.1
20260503184538 12 328 11.3 29.0 0.00 0.00 0.00 34 1012.4
20260503183053 12 310 6.4 30.6 0.00 0.00 0.00 34 1012.7
20260503181554 12 274 11.3 27.4 0.00 0.00 0.00 34 1012.6
20260503180048 12 314 12.9 29.0 0.00 0.00 0.00 35 1012.9
20260503174537 11 343 9.7 29.0 0.00 0.00 0.00 35 1012.7
20260503173050 11 65 3.2 27.4 0.00 0.00 0.00 36 1012.7
20260503171540 11 309 14.5 32.2 0.00 0.00 0.00 36 1013.0